Regional Weather Roundup
Issued by NWS Charleston, WV

Home | Current Version | Previous Version | Graphics & Text | Print | Product List | Glossary On
Versions: 1 2 3 4 5 6 7 8 9 10 11 12 13 14 15 16 17 18 19 20 21 22 23 24 25 26 27 28 29 30 31 32 33 34 35 36 37 38 39 40 41 42 43 44 45 46 47 48 49 50
000
ASUS41 KRLX 170010
RWRRLX
West Virginia Regional Weather Roundup
National Weather Service Charleston WV
800 PM EDT TUE SEP 16 2014

Note: "fair" indicates few or no clouds below 12,000 feet with no
significant weather and/or obstructions to visibility.

WVZ003-170100-
Northern Panhandle of West Virginia

CITY           SKY/WX    TMP DP  RH WIND       PRES   REMARKS
WHEELING       CLEAR     62  49  62 N5        30.07S
$$

WVZ009-170100-
Northwest West Virginia

CITY           SKY/WX    TMP DP  RH WIND       PRES   REMARKS
PARKERSBURG    CLEAR     59  53  80 W5        30.09S
$$

WVZ006-170100-
Western West Virginia

CITY           SKY/WX    TMP DP  RH WIND       PRES   REMARKS
HUNTINGTON     CLOUDY    61  55  81 NW6       30.07S
$$

WVZ015-170100-
West Central West Virginia

CITY           SKY/WX    TMP DP  RH WIND       PRES   REMARKS
CHARLESTON     CLOUDY    62  58  86 CALM      30.06F
$$

WVZ031-170100-
North Central West Virginia

CITY           SKY/WX    TMP DP  RH WIND       PRES   REMARKS
CLARKSBURG     MOCLDY    60  50  69 VRB3      30.06S
MORGANTOWN     CLEAR     61  51  70 CALM      30.07F
$$

WVZ035-042-045-170100-
South Central West Virginia

CITY           SKY/WX    TMP DP  RH WIND       PRES   REMARKS
BECKLEY        CLOUDY    58  54  86 N6        30.09S
BLUEFIELD      CLOUDY    63  56  78 CALM      30.08S
LEWISBURG      CLEAR     61  53  75 CALM      30.08R
$$

WVZ047-170100-
Northern Mountains of West Virginia

CITY           SKY/WX    TMP DP  RH WIND       PRES   REMARKS
ELKINS         PTCLDY    56  52  86 CALM      30.09R
$$

WVZ052-170100-
Eastern Panhandle of West Virginia

CITY           SKY/WX    TMP DP  RH WIND       PRES   REMARKS
MARTINSBURG    MOCLDY    67  47  48 N3        30.04R
PETERSBURG     PTCLDY    63  47  55 NW5       30.06R
$$



USA.gov is the U.S. government's official web portal to all federal, state and local government web resources and services.